KE7JVX-3 Weather Reports


time (UTC)temp
F
wind
direction
speed
knots
gust
knots
rain 1hr
in
rain 24hr
in
rain mn
in
humidity
%
barometer
mb
20260504202234 47 254 19.1 28.7 0.00 0.00 0.00 38 1010.6
20260504201228 47 253 18.2 32.2 0.00 0.00 0.00 35 1010.6
20260504200228 47 246 17.4 24.3 0.00 0.00 0.00 32 1010.6
20260504195228 47 249 16.5 25.2 0.00 0.00 0.00 32 1010.5
20260504194228 47 247 14.8 24.3 0.00 0.00 0.00 32 1010.6
20260504193228 47 242 15.6 24.3 0.00 0.00 0.00 32 1010.6
20260504192229 47 253 15.6 23.5 0.00 0.00 0.00 32 1010.7
20260504191228 47 247 15.6 22.6 0.00 0.00 0.00 31 1010.6
20260504190228 47 239 13.0 23.5 0.00 0.00 0.00 34 1010.7
20260504185228 47 255 14.8 23.5 0.00 0.00 0.00 37 1010.8
20260504184228 47 250 15.6 24.3 0.00 0.00 0.00 33 1010.7
20260504183228 46 252 17.4 25.2 0.00 0.00 0.00 34 1010.9
20260504182229 47 247 18.2 28.7 0.00 0.00 0.00 37 1011.0
20260504181228 46 246 16.5 24.3 0.00 0.00 0.00 37 1011.0
20260504180228 46 252 16.5 31.3 0.00 0.00 0.00 34 1010.9
20260504175228 45 248 20.0 30.4 0.00 0.00 0.00 34 1010.9
20260504174228 45 253 18.2 28.7 0.00 0.00 0.00 41 1010.9
20260504173230 45 257 20.0 31.3 0.00 0.00 0.00 38 1010.9
20260504172228 45 249 19.1 32.2 0.00 0.00 0.00 44 1010.6
20260504171229 45 250 20.9 33.0 0.00 0.00 0.00 44 1010.6
20260504170228 44 244 20.0 28.7 0.00 0.00 0.00 44 1010.6
20260504160228 42 249 19.1 32.2 0.00 0.00 0.00 50 1010.0
20260504150228 41 249 16.5 20.0 0.00 0.00 0.00 63 1010.1
20260504141229 40 253 13.0 18.2 0.00 0.00 0.00 67 1010.2
20260504140228 40 258 13.9 20.0 0.00 0.00 0.00 66 1010.2
20260504130228 39 263 13.0 19.1 0.00 0.00 0.00 69 1009.9
20260504120228 40 261 10.4 14.8 0.00 0.00 0.00 66 1009.7
20260504110228 41 258 13.0 20.9 0.00 0.00 0.00 60 1009.9
20260504100228 42 264 16.5 25.2 0.00 0.00 0.00 57 1009.9
20260504081228 42 263 16.5 24.3 0.00 0.00 0.00 60 1009.9
20260504080228 42 264 14.8 26.1 0.00 0.00 0.00 60 1009.9
20260504070228 43 263 17.4 26.9 0.00 0.00 0.00 56 1010.0
20260504045929 47 259 23.5 34.8 0.00 0.00 0.00 34 1010.6
20260504044929 47 265 22.6 33.0 0.00 0.00 0.00 31 1010.5
20260504043929 47 264 22.6 39.1 0.00 0.00 0.00 30 1010.4
20260504042929 48 262 24.3 37.4 0.00 0.00 0.00 30 1010.2
20260504041929 48 262 21.7 34.8 0.00 0.00 0.00 29 1010.5
20260504040929 48 261 25.2 37.4 0.00 0.00 0.00 29 1010.3
20260504035929 48 264 20.0 38.2 0.00 0.00 0.00 29 1010.2
20260504034929 49 258 20.9 34.8 0.00 0.00 0.00 29 1010.2
20260504033929 49 261 20.9 33.9 0.00 0.00 0.00 27 1010.1
20260504032929 49 260 18.2 32.2 0.00 0.00 0.00 26 1010.2
20260504031929 50 262 23.5 38.2 0.00 0.00 0.00 25 1010.1
20260504025928 50 256 20.0 33.9 0.00 0.00 0.00 21 1009.9
20260504023927 51 258 21.7 33.0 0.00 0.00 0.00 17 1009.7
20260504022927 52 262 20.0 33.0 0.00 0.00 0.00 16 1009.8
20260504021928 52 249 20.0 29.5 0.00 0.00 0.00 15 1009.7
20260504020927 53 261 16.5 26.1 0.00 0.00 0.00 13 1009.8
20260504015927 53 253 17.4 26.9 0.00 0.00 0.00 11 1009.8
20260504014927 54 250 19.1 26.1 0.00 0.00 0.00 10 1009.8
20260504014316 54 259 19.1 26.9 0.00 0.00 0.00 10 1009.9
20260504013927 54 259 19.1 26.9 0.00 0.00 0.00 10 1009.9
20260504013410 55 255 19.1 27.8 0.00 0.00 0.00 9 1009.9
20260504012927 55 255 19.1 27.8 0.00 0.00 0.00 9 1009.9
20260504012241 56 249 16.5 29.5 0.00 0.00 0.00 9 1010.1
20260504011927 56 249 16.5 29.5 0.00 0.00 0.00 9 1010.1
20260504010927 56 256 20.0 32.2 0.00 0.00 0.00 10 1010.1
20260504005927 56 245 20.9 28.7 0.00 0.00 0.00 13 1010.0
20260504005227 56 249 15.6 26.1 0.00 0.00 0.00 19 1010.2
20260504004927 56 249 15.6 26.1 0.00 0.00 0.00 19 1010.2
20260504004311 56 251 13.0 22.6 0.00 0.00 0.00 21 1010.3
20260504003927 56 251 13.0 22.6 0.00 0.00 0.00 21 1010.3
20260504003339 55 245 13.9 20.9 0.00 0.00 0.00 24 1010.4
20260504002927 55 245 13.9 20.9 0.00 0.00 0.00 24 1010.4
20260504001927 55 248 15.6 24.3 0.00 0.00 0.00 24 1010.5
20260504000927 55 246 13.9 22.6 0.00 0.00 0.00 24 1010.4
20260503235927 56 244 14.8 23.5 0.00 0.00 0.00 23 1010.5
20260503234927 58 236 13.9 26.9 0.00 0.00 0.00 22 1010.4
20260503234410 57 248 13.9 28.7 0.00 0.00 0.00 20 1010.5
20260503233927 57 248 13.9 28.7 0.00 0.00 0.00 20 1010.5
20260503232927 56 254 18.2 31.3 0.00 0.00 0.00 21 1010.7
20260503231927 57 258 25.2 32.2 0.00 0.00 0.00 19 1010.4
20260503230927 56 243 17.4 30.4 0.00 0.00 0.00 19 1010.5
20260503230259 57 253 22.6 34.8 0.00 0.00 0.00 17 1010.5
20260503225927 57 253 22.6 34.8 0.00 0.00 0.00 17 1010.5
20260503225550 57 253 21.7 29.5 0.00 0.00 0.00 17 1010.7
20260503224927 57 253 21.7 29.5 0.00 0.00 0.00 17 1010.7
20260503224616 56 248 17.4 26.9 0.00 0.00 0.00 18 1010.9
20260503223927 56 248 17.4 26.9 0.00 0.00 0.00 18 1010.9
20260503222928 57 249 16.5 23.5 0.00 0.00 0.00 18 1011.0
20260503222304 57 246 11.3 27.8 0.00 0.00 0.00 20 1011.1
20260503221927 57 246 11.3 27.8 0.00 0.00 0.00 20 1011.1
20260503221425 58 251 19.1 29.5 0.00 0.00 0.00 17 1011.1
20260503220927 58 251 19.1 29.5 0.00 0.00 0.00 17 1011.1
20260503220346 58 250 20.0 26.9 0.00 0.00 0.00 17 1011.4
20260503215927 58 250 20.0 26.9 0.00 0.00 0.00 17 1011.4
20260503215541 58 256 18.2 25.2 0.00 0.00 0.00 17 1011.3
20260503214927 58 256 18.2 25.2 0.00 0.00 0.00 17 1011.3
20260503213927 57 243 12.2 24.3 0.00 0.00 0.00 22 1011.6
20260503212927 57 251 16.5 29.5 0.00 0.00 0.00 23 1011.7
20260503211927 57 251 17.4 23.5 0.00 0.00 0.00 26 1011.8
20260503210927 55 236 6.1 18.2 0.00 0.00 0.00 32 1012.0
20260503205927 54 255 8.7 24.3 0.00 0.00 0.00 30 1012.1
20260503204928 57 248 14.8 21.7 0.00 0.00 0.00 28 1012.1
20260503203927 56 229 7.0 21.7 0.00 0.00 0.00 30 1012.2